Location: Rounton
(54.4000°N, 1.3500°W)
Time: 01:16:42
(UTC+00:00)

Transit 4A - Pass Details

Date: 30 November 2021
Orbit: 864 x 981 km, 66.8° (Epoch: 19 January)

Event Time Altitude Azimuth Distance (km) Brightness Sun altitude
Exits shadow 06:08:59 22° 275° (W) 1,970 9.0 -15.4°
Maximum altitude 06:10:46 25° 251° (WSW) 1,843 9.0 -15.1°
Drops below altitude 10° 06:15:44 10° 199° (SSW) 2,713 10.3 -14.4°
Sets 06:18:45 0° 186° (S) 3,665 11.2 -14.0°
